User: anonymous   Login
Location: Choisy
(48.7685°N, 2.4187°E)
Time: 00:41:39
(UTC+00:00)
Language:

ISS - Orbit

View from above orbital plane
View from above orbital plane
View from above satellite
View from above satellite

Ground track
Ground track

The orbit data is extracted from the following two-line orbital elements,

1 25544U 98067A   24115.80619926  .00041364  00000-0  70738-3 0  9990
2 25544  51.6402 220.0932 0004913  99.5117  43.2976 15.50841100450260
Epoch (UTC): 24 April 2024 19:20:55
Eccentricity: 0.0004913
inclination: 51.6402°
perigee height: 411 km
apogee height: 417 km
right ascension of ascending node: 220.0932°
argument of perigee: 99.5117°
revolutions per day: 15.50841100
mean anomaly at epoch: 43.2976°
orbit number at epoch: 45026

The dashed part of the orbit path shows where the satellite is in the earth's shadow,  

DLR